User: anonymous   Login
Location: Brede
(50.9167°N, 0.6000°E)
Time: 20:54:16
(UTC+00:00)
Language:

X-37B - Orbit

View from above orbital plane
View from above orbital plane
View from above satellite
View from above satellite

Ground track
Ground track

The orbit data is extracted from the following two-line orbital elements,

1 45606U 20029A   20331.72054879 0.00000000  00000-0  00000-0 0    08
2 45606  45.0250 295.3045 0004556 320.1667  39.8329 15.60250763    01
Epoch (UTC): 26 November 2020 17:17:35
Eccentricity: 0.0004556
inclination: 45.0250°
perigee height: 384 km
apogee height: 390 km
right ascension of ascending node: 295.3045°
argument of perigee: 320.1667°
revolutions per day: 15.60250763
mean anomaly at epoch: 39.8329°
orbit number at epoch: 0

The dashed part of the orbit path shows where the satellite is in the earth's shadow,  

DLR